Weather History for K1V4 - February, 2012

Change the Weather History Date:

Monday, February 20, 2012

  Actual Average Record
Temperature  
Mean Temperature 20 °F 21 °F  
Max Temperature 30 °F 32 °F 60 °F (1981)
Min Temperature 10 °F 9 °F -23 °F (1903)
Degree Days  
Heating Degree Days 45 44  
Month to date heating degree days 818 932  
Since 1 July heating degree days 4831 5381  
Cooling Degree Days 0 0  
Month to date cooling degree days 0  
Year to date cooling degree days 0  
Moisture  
Dew Point 11 °F    
Average Humidity 68    
Maximum Humidity 96    
Minimum Humidity 39    
Precipitation  
Precipitation 0.00 in 0.07 in 0.80 in (1946)
Month to date precipitation 0.19 1.57  
Year to date precipitation 2.87 4.08  
Sea Level Pressure  
Sea Level Pressure 30.20 in    
Wind  
Wind Speed - (North)    
Max Wind Speed -    
Max Gust Speed -    
T = Trace of Precipitation, MM = Missing Value Source: NWS Daily Summary

Daily Weather History Graph

Daily Weather History Graph

Search for Another Location

Airport or City:

Trip Planner

Search our weather history database for the weather conditions in past years. The results will help you decide how hot, cold, wet, or windy it might be!

Date:

Astronomy

Feb. 20, 2012 Rise Set
Actual Time 6:41 AM EST 5:23 PM EST
Civil Twilight 6:11 AM EST 5:52 PM EST
Nautical Twilight 5:37 AM EST 6:26 PM EST
Astronomical Twilight 5:04 AM EST 7:00 PM EST
Moon 5:37 AM EST (2/20) 4:24 PM EST (2/20)
Length of Visible Light 11h 41m
Length of Day
10h 42m
Waning Crescent, 2% of the Moon is Illuminated
Feb 20
Waning Crescent
Feb 21
New
Feb 29
First Quarter
Mar 8
Full
Mar 14
Last Quarter

Hourly Weather History & Observations

Time (EST) Temp. Dew Point Humidity Pressure Visibility Wind Dir Wind Speed Gust Speed Precip Events Conditions
12:54 AM 16.0 °F 12.9 °F 88% 30.09 in - North - - N/A   Unknown
1:54 AM 14.0 °F 12.0 °F 92% 30.09 in - North - - N/A   Unknown
2:54 AM 14.0 °F 10.0 °F 84% 30.09 in - North - - N/A   Unknown
3:54 AM 12.9 °F 10.0 °F 88% 30.10 in - North - - N/A   Unknown
4:54 AM 12.0 °F 9.0 °F 88% 30.12 in - North - - N/A   Unknown
5:54 AM 10.9 °F 8.1 °F 88% 30.12 in - North - - N/A   Unknown
6:54 AM 10.0 °F 7.0 °F 87% 30.14 in - North - - N/A   Unknown
7:54 AM 12.9 °F 9.0 °F 84% 30.17 in - North - - N/A   Unknown
8:54 AM 17.1 °F 10.0 °F 74% 30.19 in - North - - N/A   Unknown
9:54 AM 19.9 °F 8.1 °F 60% 30.19 in - North - - N/A   Unknown
10:54 AM 23.0 °F 5.0 °F 46% 30.19 in - North - - N/A   Unknown
11:54 AM 26.1 °F 7.0 °F 44% 30.19 in - North - - N/A   Unknown
12:54 PM 28.0 °F 7.0 °F 41% 30.20 in - North - - N/A   Unknown
1:54 PM 28.9 °F 8.1 °F 41% 30.20 in - North - - N/A   Unknown
2:54 PM 28.9 °F 10.0 °F 45% 30.22 in - North - - N/A   Unknown
3:54 PM 28.9 °F 10.9 °F 47% 30.23 in - North - - N/A   Unknown
4:54 PM 28.9 °F 12.9 °F 51% 30.25 in - North - - N/A   Unknown
5:54 PM 28.0 °F 16.0 °F 61% 30.26 in - North - - N/A   Unknown
6:54 PM 27.0 °F 15.1 °F 61% 30.28 in - North - - N/A   Unknown
7:54 PM 24.1 °F 16.0 °F 71% 30.29 in - North - - N/A   Unknown
8:54 PM 21.9 °F 16.0 °F 78% 30.31 in - North - - N/A   Unknown
9:54 PM 23.0 °F 16.0 °F 74% 30.31 in - North - - N/A   Unknown
10:54 PM 21.9 °F 16.0 °F 78% 30.31 in - North - - N/A   Unknown
11:54 PM 19.0 °F 14.0 °F 81% 30.32 in - North - - N/A   Unknown